Temp
20 22 22 22 24 27 29 30 32 32 32 32 30 31 31 25 28 26 22 20 21 20 20 21 21 21 21 21 21 21 21 21 21 22 21 21 22 22 22 21 21 21 21 21 20 20 20 20 21
24 23 24 27 26 29 30 32 32 32 32 32 30 30 29 24 26 24 23 22 22 22 22 23 22 21 21 21 21 21 21 21 21 21 21 22 21 22 21 21 21 21 21 20 21 20 20 20 21
24 24 27 27 32 31 31 32 32 32 32 32 30 31 30 27 26 25 24 23 24 23 24 22 21 21 21 21 21 21 21 21 21 21 21 22 21 21 21 22 21 22 21 21 21 21 21 21 22
24 24 26 28 33 33 33 33 32 32 32 32 31 29 27 26 25 24 23 24 24 24 25 21 21 21 21 21 21 21 21 21 21 21 21 21 21 21 22 21 21 21 21 21 21 22 21 22 22
26 27 28 31 34 33 34 33 32 33 32 31 31 28 25 25 25 24 24 25 25 25 24 22 21 21 21 21 21 21 21 21 21 21 21 21 21 21 21 22 21 21 22 22 22 22 22 22 22
28 31 32 35 35 34 34 34 33 33 32 30 30 28 25 25 25 24 25 26 26 26 25 23 21 21 22 22 21 21 21 21 21 21 21 21 21 21 21 21 21 21 22 22 22 22 22 22 22
29 33 34 35 35 34 34 34 34 33 32 31 31 29 26 26 25 25 26 26 26 26 26 24 23 22 21 21 21 21 21 21 21 21 21 22 22 22 21 21 21 21 22 22 23 22 23 23 22
31 32 34 35 35 34 34 34 34 33 32 32 31 28 26 26 26 26 26 25 26 26 26 25 24 23 23 22 21 21 21 21 21 21 22 22 23 22 22 23 22 22 23 23 23 23 23 23 23
30 33 35 35 35 35 34 34 33 33 32 32 31 32 29 26 26 26 26 25 25 26 26 25 25 24 24 24 22 21 21 21 22 22 23 23 25 24 24 23 23 22 23 23 23 24 24 24 24
31 34 35 36 36 35 35 35 33 33 32 32 31 31 28 26 26 27 26 26 25 26 26 26 25 25 24 25 23 23 24 24 25 25 24 25 24 24 24 23 23 23 23 23 24 24 24 25 27
32 34 36 36 36 36 36 34 35 34 32 33 31 29 28 27 27 27 27 27 27 26 26 26 25 24 24 25 24 24 25 25 24 23 23 24 24 24 25 25 25 24 24 24 24 24 25 25 26
32 34 35 36 36 36 35 36 34 34 35 34 32 30 29 29 29 28 28 27 27 26 26 26 25 24 24 25 24 25 25 25 25 25 23 23 24 24 24 25 24 24 25 25 25 24 24 24 23
32 34 35 35 35 36 36 35 35 35 34 35 32 30 30 29 29 28 28 28 27 26 26 26 25 23 24 24 25 25 25 25 26 25 24 24 25 24 24 24 25 25 25 26 24 24 24 23 24
35 34 35 36 37 37 36 36 35 35 35 33 32 31 31 30 29 29 28 28 27 27 26 25 24 23 23 23 24 24 24 25 25 25 25 23 24 24 25 25 25 25 25 25 23 23 24 23 25
34 33 35 36 37 36 37 36 35 36 34 33 32 31 31 31 30 29 28 28 27 27 26 26 24 24 23 23 23 23 25 25 25 25 24 23 23 23 23 25 25 25 23 23 23 23 25 24 25
33 34 34 37 37 37 36 36 37 36 34 33 33 32 31 31 30 29 28 28 28 27 26 25 25 25 23 23 23 24 25 25 25 25 25 23 23 23 23 24 24 25 23 24 24 24 24 26 26
34 34 35 36 37 37 36 37 38 36 35 34 33 32 32 31 30 29 29 28 28 27 26 25 25 25 24 23 24 24 24 24 25 25 25 24 23 23 23 23 24 24 24 23 24 23 24 25 25
33 34 36 36 37 37 37 37 38 37 36 35 34 33 32 31 31 30 29 28 28 27 26 25 25 25 24 24 23 24 25 24 25 25 25 24 23 23 23 25 24 24 25 24 23 23 24 25 25
35 35 35 36 37 36 37 37 37 37 36 36 34 33 33 32 32 30 29 28 28 27 26 25 24 24 24 24 24 25 25 25 25 25 25 24 24 24 23 25 24 24 24 23 23 23 23 25 24
33 33 35 36 37 36 36 37 38 37 36 36 35 34 33 33 33 31 30 29 28 27 26 25 24 24 23 24 25 26 26 26 26 26 25 24 24 24 24 24 24 24 24 23 23 23 25 25 25
32 32 34 35 36 36 36 36 36 38 37 36 36 35 35 34 33 32 31 30 29 28 27 26 24 24 23 25 24 24 25 25 26 26 25 25 24 24 24 25 24 23 24 23 23 23 24 26 24
31 33 34 34 34 34 37 35 37 38 37 37 37 36 35 35 34 33 32 30 30 29 27 26 25 24 24 24 25 25 26 26 27 26 26 26 24 24 24 24 24 24 25 25 23 24 24 23 26
32 34 34 33 34 34 35 35 36 38 37 37 37 37 36 36 35 34 33 31 30 29 28 27 25 24 25 24 25 25 25 27 27 27 27 25 25 24 25 24 24 24 24 24 24 23 22 24 25
33 33 33 33 33 33 34 35 36 37 37 38 38 37 36 36 35 35 33 32 31 30 29 27 26 24 24 24 23 25 25 26 27 27 27 26 26 26 25 25 24 24 24 24 24 23 22 23 24
32 32 31 31 32 33 36 35 35 38 39 38 39 39 37 36 35 35 34 33 31 30 29 28 26 25 24 24 24 24 24 25 26 26 26 27 27 27 26 24 24 24 24 24 24 23 23 22 23
31 33 33 31 33 34 35 34 36 38 39 39 39 40 39 37 36 36 35 33 32 31 29 28 27 25 25 25 24 24 24 25 25 26 27 27 28 27 27 25 24 24 24 24 24 23 23 23 23
32 33 35 35 35 34 37 36 38 38 38 38 39 39 40 38 37 36 36 34 32 31 30 29 28 26 26 25 25 24 24 24 26 26 26 27 27 28 26 25 24 24 24 24 24 24 23 23 22
34 34 33 34 32 32 35 35 36 37 36 38 38 39 40 39 37 37 36 36 34 32 31 29 28 27 26 26 25 25 25 24 25 26 25 26 27 26 27 25 25 25 24 24 24 24 24 23 23
33 33 33 35 35 34 34 36 38 37 37 37 38 39 40 39 39 38 38 36 35 34 32 30 29 28 27 27 26 26 26 25 25 25 25 25 26 26 25 25 25 25 25 24 24 24 25 23 23
34 33 33 33 32 34 35 37 38 38 38 38 39 39 40 40 40 39 39 38 36 34 33 32 31 29 28 28 26 26 26 26 26 25 25 25 25 25 25 25 25 25 25 25 24 24 25 24 23
Height
789 791 792 792 803 787 781 774 756 762 761 754 763 762 769 786 783 805 803 809 813 817 820 824 826 828 831 833 835 837 839 840 842 843 843 844 845 846 846 846 847 848 848 849 849 849 849 849 850
788 790 790 781 797 791 779 759 761 756 757 756 764 767 775 796 787 796 802 810 815 819 823 826 829 831 833 836 838 840 842 843 844 844 846 847 848 848 848 848 849 850 849 850 850 851 851 851 850
789 789 785 786 767 777 777 760 757 757 757 759 768 766 772 789 792 798 803 809 814 819 822 827 830 833 836 838 840 842 843 845 846 847 849 850 850 850 850 851 852 852 852 851 851 852 852 852 851
789 792 787 788 763 759 758 754 755 760 759 759 763 779 784 790 795 799 807 811 814 819 822 828 832 835 838 841 843 845 845 847 848 850 851 852 852 852 852 853 853 853 853 853 852 852 853 853 853
785 784 784 770 757 755 749 751 754 757 759 763 763 782 793 795 796 803 808 811 814 819 824 830 833 837 840 843 845 846 848 849 851 852 853 854 853 853 854 854 855 855 854 854 854 854 854 854 854
780 768 766 759 756 753 748 747 751 755 759 766 770 783 795 796 799 803 807 811 815 819 825 830 835 838 841 844 846 848 849 851 853 853 854 855 855 855 856 857 857 856 856 856 856 856 856 856 855
775 762 759 753 756 753 752 744 750 755 761 767 765 780 791 795 800 803 808 812 816 820 826 832 836 840 843 845 848 849 851 852 853 854 855 856 856 856 857 858 858 858 858 858 858 858 857 857 857
765 763 757 750 753 761 748 747 745 752 764 761 765 783 793 793 799 804 809 814 817 821 826 831 836 841 844 847 849 851 852 853 854 855 856 856 857 858 859 859 859 860 859 859 859 859 858 858 859
765 764 758 754 750 753 745 751 749 750 761 762 766 767 780 792 799 804 809 814 819 821 826 831 835 840 844 847 850 851 852 854 855 855 856 857 858 858 859 860 860 860 861 861 861 861 860 859 858
764 756 748 740 739 746 743 745 752 757 763 765 769 771 783 793 798 802 806 810 816 819 824 829 834 839 844 846 849 852 854 855 856 856 857 857 858 859 860 860 861 861 862 862 863 862 861 857 857
754 755 740 740 737 737 739 746 743 753 764 761 771 776 784 790 797 800 805 809 812 818 823 827 833 838 842 845 848 851 852 854 856 856 857 858 858 859 859 860 860 861 862 860 861 861 862 861 859
760 746 742 737 737 739 743 737 747 748 749 750 761 773 780 787 792 797 801 806 811 817 822 827 832 837 841 844 847 849 851 853 854 855 857 857 858 858 859 860 861 861 861 861 862 863 863 863 862
756 744 740 738 737 736 735 744 743 747 745 749 761 772 779 785 790 795 801 806 811 816 821 826 831 836 840 843 845 848 850 852 853 855 856 857 858 859 860 860 860 861 861 860 864 864 863 862 862
736 743 740 736 732 731 739 738 741 740 744 753 761 769 774 780 786 792 797 803 809 814 819 824 829 834 838 841 845 847 849 850 852 853 855 857 858 859 859 860 860 861 862 861 864 865 863 861 860
739 752 741 734 730 734 730 743 745 733 743 751 758 764 770 776 783 788 793 799 806 811 816 822 827 831 836 840 843 846 847 849 851 853 855 856 857 859 859 860 861 861 862 863 864 863 861 862 861
746 743 752 727 725 727 733 747 728 729 741 748 753 758 765 771 778 785 792 797 803 809 814 819 823 828 833 837 840 843 845 847 849 851 853 854 856 858 859 861 860 860 862 863 863 863 862 860 860
741 749 744 734 721 723 733 738 721 726 735 742 748 754 759 767 774 781 788 794 799 806 811 816 820 824 829 834 837 840 843 845 847 848 850 852 854 856 858 859 859 860 860 862 862 863 862 861 860
747 748 733 737 723 725 732 734 720 723 730 736 744 749 756 761 766 776 784 790 796 802 808 813 817 822 826 830 834 837 839 842 844 846 848 850 852 854 856 856 858 859 859 861 862 862 862 862 861
725 732 738 727 717 729 729 729 723 721 728 730 738 744 749 753 761 770 778 785 791 797 803 808 813 817 821 825 828 832 834 838 841 843 845 848 850 852 853 854 857 858 859 860 862 862 863 862 863
735 739 736 723 717 729 727 728 716 717 723 725 731 737 741 747 754 763 771 778 784 791 797 803 808 812 816 819 823 827 831 834 837 839 842 844 847 849 850 852 855 856 857 859 860 862 860 861 862
738 741 736 735 723 724 729 734 725 712 714 718 719 725 731 738 746 755 763 770 777 783 789 796 802 807 812 816 821 825 828 831 833 835 837 840 843 845 847 848 852 854 855 856 858 860 860 857 862
738 725 730 731 737 748 717 749 717 710 714 714 715 717 723 729 736 744 754 762 767 774 783 790 797 803 808 812 815 818 821 823 826 830 833 836 839 842 845 846 848 851 852 853 855 857 858 858 858
726 715 726 732 737 739 730 738 720 700 715 709 707 707 713 718 726 734 742 750 760 770 776 784 791 798 802 807 810 814 817 820 823 826 829 833 835 838 841 843 845 849 849 851 852 854 855 856 856
713 723 727 732 735 747 726 727 719 707 706 701 697 699 704 710 715 724 734 746 754 763 770 777 783 789 795 799 804 807 811 815 817 821 824 828 831 834 837 839 842 845 846 848 850 852 853 854 855
715 727 745 751 742 734 708 720 710 686 681 689 689 688 695 701 710 716 726 735 744 752 760 768 775 781 787 792 797 801 805 810 814 817 821 822 825 827 830 834 837 839 842 845 847 849 850 851 852
711 713 718 744 731 723 703 712 695 674 674 675 677 675 682 695 701 707 715 723 733 741 749 757 764 772 779 784 788 793 799 804 808 812 814 817 819 821 825 828 831 834 837 840 843 846 847 848 849
702 705 684 697 698 710 686 687 674 669 670 672 675 673 676 684 691 697 703 713 722 731 739 745 752 760 767 773 780 784 790 795 798 802 807 811 814 816 820 823 826 829 832 835 839 841 842 844 845
677 681 712 699 731 732 697 694 690 675 678 671 672 669 669 673 682 688 695 701 709 718 726 736 743 746 752 762 768 774 779 784 789 795 799 802 805 810 813 817 820 824 826 830 832 835 837 839 840
683 686 687 686 689 705 712 686 651 664 663 667 663 662 661 666 671 677 683 691 699 709 719 725 734 740 746 751 755 762 768 774 780 785 789 793 798 802 806 810 814 817 820 823 826 828 830 832 835
660 674 677 691 704 692 687 678 646 650 651 655 656 657 655 657 663 669 674 682 691 698 706 712 719 727 731 737 744 749 756 762 768 772 778 784 788 793 797 802 806 810 813 816 819 821 823 826 828
Wind_Speed
17 16 11 6 3 5 1 5 1 8 6 7 7 2 8 8 4 4 21 19 26 26 27 24 24 21 19 17 16 16 16 15 14 13 12 12 11 10 9 10 10 11 10 9 8 7 7 6 5
18 14 6 3 4 3 5 3 7 6 8 12 10 7 7 4 6 15 18 30 29 28 24 24 23 22 20 19 18 18 16 15 14 13 11 11 10 10 9 10 11 10 10 9 8 7 6 4 4
16 12 3 3 5 3 5 3 7 10 10 7 5 9 4 5 14 21 26 30 30 26 25 23 23 22 21 20 19 17 16 15 13 12 11 10 10 9 10 11 10 8 9 8 8 8 6 5 4
9 3 4 4 3 7 5 6 10 10 6 4 7 8 9 5 17 15 31 31 28 26 25 25 23 22 21 19 18 17 16 14 13 11 10 10 9 8 10 9 8 8 8 8 8 8 8 7 6
9 3 4 6 11 7 4 9 7 7 7 8 5 8 8 14 16 32 30 30 28 26 25 24 23 23 21 18 17 16 15 13 12 11 10 9 8 8 8 9 8 8 8 9 10 10 10 10 8
5 5 7 6 9 7 5 8 6 3 7 8 8 13 7 16 29 30 30 27 27 25 26 24 22 22 20 17 17 16 14 13 12 10 9 9 8 8 7 8 8 8 8 9 11 11 10 10 10
8 6 4 3 6 7 4 5 6 5 5 6 12 12 12 21 29 30 28 25 26 25 26 24 22 20 18 17 16 15 13 12 11 10 9 8 8 7 7 7 7 7 8 9 9 10 10 10 11
5 5 3 2 5 11 5 6 2 4 7 13 12 8 13 25 30 29 25 24 25 24 25 24 23 21 17 15 15 14 12 11 10 8 7 7 6 6 6 7 6 7 8 7 8 8 8 8 9
4 6 3 6 2 7 8 5 6 5 12 7 7 9 24 32 30 29 26 26 23 24 25 25 23 21 18 16 15 12 11 9 8 6 6 5 4 3 3 3 6 6 6 7 8 8 8 8 10
8 8 5 4 6 8 4 5 10 7 12 13 9 16 31 33 30 29 27 27 28 27 26 25 23 22 19 17 15 12 10 8 7 5 5 4 3 1 2 2 4 6 6 5 4 4 3 1 4
8 9 5 5 3 6 4 7 9 8 11 14 15 21 27 30 28 28 27 27 28 27 26 25 23 21 20 17 15 13 11 9 8 7 5 4 2 2 1 3 3 3 4 7 3 2 4 4 8
10 12 8 1 2 1 3 5 9 11 6 14 17 23 26 26 25 28 28 28 27 27 25 24 23 22 20 17 16 13 11 10 9 8 7 5 3 2 1 2 0 3 2 2 0 6 3 3 2
19 11 8 9 11 10 7 6 4 11 7 16 19 23 25 23 26 27 26 25 26 26 25 24 23 21 20 17 15 13 11 11 9 8 7 6 4 2 1 1 1 2 2 2 2 2 2 1 0
11 16 12 9 9 10 9 8 11 11 14 17 20 23 24 25 28 27 26 26 26 26 25 24 23 22 20 18 15 13 12 10 10 9 8 8 5 3 2 2 1 1 1 3 3 2 2 3 3
16 13 14 14 11 8 8 10 13 9 16 19 20 20 22 24 29 28 29 27 27 27 25 25 24 22 21 19 17 14 13 11 11 10 9 9 7 5 3 3 2 2 1 2 2 2 3 4 3
16 17 16 17 16 11 11 8 18 16 18 19 19 20 21 24 28 29 27 27 26 24 25 25 24 23 22 20 18 16 14 13 12 12 11 11 9 8 6 2 3 3 1 2 1 2 5 2 1
14 15 20 16 13 7 13 10 12 16 18 18 19 19 21 21 26 29 28 28 26 25 24 25 24 23 23 21 19 18 16 14 13 13 13 12 12 10 8 6 5 4 3 1 2 1 2 3 3
20 20 17 16 16 15 14 14 8 14 17 17 18 18 20 21 25 30 29 28 27 25 24 24 24 23 23 20 19 18 17 16 15 14 14 13 12 11 10 9 5 5 3 1 2 1 2 2 3
18 19 20 16 13 11 13 13 7 11 17 17 18 19 20 22 23 30 30 30 28 26 26 26 26 26 25 24 23 21 21 18 17 16 15 14 12 11 11 11 6 6 5 1 4 3 3 3 3
21 18 22 15 9 9 15 14 12 12 16 16 18 20 21 20 21 25 30 31 31 29 28 27 27 27 28 25 23 21 20 19 18 17 16 16 14 13 13 12 9 9 4 4 4 4 3 2 5
23 24 21 15 12 15 16 17 14 12 13 15 18 19 20 22 23 23 28 32 31 32 31 30 29 28 27 24 22 19 18 17 19 19 18 17 15 13 13 11 10 9 7 6 5 5 4 2 4
25 25 21 20 17 15 15 15 18 21 16 16 18 19 21 22 23 22 25 31 34 35 32 30 30 29 26 27 25 25 23 21 20 20 19 18 16 15 13 11 10 11 8 6 4 5 5 5 4
22 18 20 21 19 18 23 13 16 12 16 18 19 20 21 22 24 24 24 34 34 32 32 31 30 30 28 28 27 27 24 22 18 19 18 19 17 17 15 13 11 11 10 8 6 6 7 6 5
15 16 14 15 17 20 24 21 19 19 18 18 17 18 20 23 25 25 30 30 32 32 31 31 32 32 32 32 32 28 26 24 21 20 20 20 20 19 19 17 14 13 12 11 9 9 9 9 8
22 17 9 12 17 20 21 20 19 11 20 20 18 18 19 22 22 24 24 25 31 34 34 32 32 33 34 35 33 34 31 28 25 21 22 18 19 20 21 21 18 17 15 13 12 11 11 12 11
27 23 12 16 14 17 19 22 21 25 22 9 20 18 18 20 21 23 25 29 33 37 38 37 35 34 34 35 36 34 33 31 29 27 25 22 21 19 18 21 22 21 18 16 15 14 13 13 13
25 25 27 6 5 9 17 19 18 10 18 24 22 16 16 19 22 25 26 32 34 36 37 39 38 37 37 37 35 36 35 35 33 31 28 26 22 19 19 21 23 22 21 19 17 17 16 16 15
20 25 22 15 17 18 13 19 12 22 21 19 22 22 19 20 22 21 22 29 36 38 40 41 41 41 41 39 38 37 37 36 36 31 31 28 28 26 21 23 23 23 22 21 21 19 19 18 18
22 19 23 18 17 13 12 11 15 17 16 21 20 20 20 19 19 20 21 28 32 33 35 39 39 39 38 40 40 38 38 38 36 35 34 34 31 28 27 26 24 25 24 24 23 23 21 21 20
29 23 27 14 23 19 14 5 4 7 15 17 19 18 18 18 16 15 17 19 25 31 34 38 41 41 43 42 40 41 39 39 38 38 38 36 35 34 31 29 27 26 27 27 26 26 25 25 23
Wind_Direction
162 164 165 172 237 233 260 92 34 108 115 83 145 56 73 40 13 81 136 151 142 143 151 149 153 154 155 152 146 141 141 137 131 127 116 110 106 98 93 89 88 85 85 85 86 88 89 97 93
165 169 193 265 266 263 104 114 129 93 88 109 97 123 75 79 81 127 134 151 146 145 147 152 153 155 154 151 149 145 140 134 132 122 119 114 112 101 92 89 81 76 76 79 77 75 80 85 80
162 180 246 249 238 64 81 107 99 112 124 147 105 51 81 79 115 141 142 146 148 152 151 152 152 150 151 152 150 145 138 136 131 125 122 117 107 104 93 82 80 77 79 76 72 69 72 77 69
155 184 246 255 74 75 47 115 119 132 123 135 113 89 99 31 136 142 148 149 150 151 146 153 151 150 148 150 147 144 140 138 129 128 124 119 108 97 91 83 84 78 78 83 85 79 78 78 81
173 221 245 232 83 80 94 128 159 147 131 155 189 106 93 121 130 140 149 153 149 151 148 151 153 154 150 151 149 145 143 139 134 128 120 116 109 97 86 86 77 78 87 86 84 84 81 84 79
204 250 234 83 77 100 105 148 154 116 132 122 122 125 112 136 142 147 152 155 153 149 151 152 157 156 149 155 150 146 144 144 135 127 123 118 112 104 89 79 81 85 92 89 85 81 84 82 73
265 276 349 352 80 125 114 164 178 137 142 157 132 124 131 145 150 150 152 153 154 153 154 155 157 156 153 157 149 145 145 144 142 137 130 122 113 101 88 87 83 87 97 92 83 75 75 73 66
265 267 253 81 59 84 113 164 118 163 105 119 141 150 159 155 156 156 155 156 158 159 158 159 160 160 160 161 154 149 148 146 143 143 138 128 111 100 78 81 88 105 107 90 74 75 74 69 76
242 249 158 98 69 96 138 142 122 99 142 155 156 146 146 154 158 159 159 159 162 166 166 165 166 166 168 167 167 159 159 156 148 135 147 104 140 112 104 135 129 120 113 101 84 84 82 98 90
224 266 103 83 76 36 124 203 144 165 153 146 125 116 146 158 163 166 166 166 169 170 173 171 172 172 173 174 177 175 180 177 169 170 169 163 156 156 127 133 135 148 136 139 116 104 101 36 88
202 253 131 151 96 8 77 183 161 155 175 167 151 148 155 163 171 172 173 174 173 173 176 175 176 177 180 180 183 187 189 190 191 194 194 196 194 187 171 132 143 164 171 193 178 118 12 7 9
241 235 256 287 290 260 19 154 188 180 92 159 153 161 162 170 175 177 176 177 176 177 178 179 179 181 186 187 191 193 195 197 199 198 205 209 204 170 153 172 163 186 189 143 353 39 356 14 34
225 248 240 243 259 262 278 215 215 191 128 147 150 164 172 177 178 180 181 180 182 182 182 181 181 183 188 192 196 200 203 203 206 203 207 206 214 223 184 118 154 177 185 173 42 352 3 345 5
200 236 252 259 254 250 244 204 203 183 151 152 162 173 178 184 183 181 185 186 189 188 186 184 185 187 190 195 195 199 204 207 210 209 208 212 210 218 217 210 213 228 259 14 346 5 346 26 46
243 247 247 243 239 236 234 234 205 170 168 166 173 180 184 187 189 191 189 190 192 193 188 188 189 192 194 197 199 202 206 209 210 212 212 213 217 219 220 225 239 254 315 280 283 306 302 38 98
225 235 246 224 217 215 226 256 164 168 179 179 178 179 187 190 194 195 194 195 194 195 193 193 194 195 197 200 200 205 209 210 211 208 209 212 215 218 230 241 259 261 257 282 256 309 344 28 65
212 231 220 221 192 207 216 236 114 172 190 187 185 183 184 189 195 196 198 198 197 198 195 196 195 196 198 201 203 205 207 209 210 209 209 211 215 223 234 235 248 265 247 219 235 245 309 47 8
212 220 242 222 210 216 229 239 243 179 204 197 190 187 188 190 195 197 201 200 202 198 199 200 197 197 196 198 201 205 206 209 210 211 213 214 222 228 235 248 237 249 272 257 155 175 44 35 44
234 225 227 225 224 228 235 248 251 193 206 206 192 195 195 196 192 196 199 201 202 202 200 200 199 199 194 196 199 203 205 207 213 214 214 217 222 231 234 241 228 238 245 224 164 172 139 104 133
230 231 231 233 203 243 242 243 240 200 211 211 197 201 203 199 193 196 199 202 202 202 202 202 202 202 199 199 200 204 205 210 212 213 215 219 228 235 234 238 219 228 237 205 195 198 153 90 164
223 227 234 236 209 234 254 256 243 224 209 211 215 204 208 203 196 194 197 201 201 203 203 203 203 203 202 202 199 200 206 214 213 214 214 219 224 224 223 234 220 218 232 223 195 199 215 137 175
223 218 237 241 236 248 207 256 227 222 208 214 208 209 207 202 202 195 197 200 202 204 203 204 204 205 203 199 199 200 204 205 210 214 215 216 218 218 220 225 220 222 226 240 207 213 223 224 184
232 227 220 238 245 248 249 250 253 210 220 219 218 212 208 208 202 199 199 201 203 202 203 204 206 206 203 201 206 200 209 212 211 216 216 216 216 217 219 220 223 221 227 226 220 207 214 217 239
218 229 225 230 236 239 236 241 238 233 217 230 209 214 207 206 205 200 201 201 201 204 203 204 203 206 205 202 206 208 207 215 213 210 212 218 220 220 222 221 215 222 227 226 222 213 214 215 213
199 194 190 210 217 234 223 234 235 245 231 215 225 211 205 202 205 201 199 197 201 203 203 205 205 206 206 207 208 211 213 213 217 213 214 214 218 219 216 215 214 217 221 222 219 216 214 212 210
196 202 213 211 214 228 217 236 239 228 237 249 226 240 195 200 203 205 200 201 200 202 201 202 202 205 206 209 210 210 212 216 220 220 222 220 222 219 219 215 214 216 215 215 215 218 218 217 214
193 215 215 251 194 267 225 219 247 254 223 220 223 218 210 194 202 204 205 204 203 203 202 203 201 202 203 207 210 212 213 215 220 221 220 224 222 222 216 213 212 211 210 210 211 219 219 217 215
201 206 212 231 239 233 225 233 226 209 212 218 217 218 206 198 199 204 206 207 207 207 206 204 204 202 203 205 209 213 213 214 217 216 218 218 220 218 215 212 210 208 208 210 212 220 219 218 219
202 204 213 225 231 218 236 238 207 230 211 214 210 212 209 201 199 201 206 209 212 211 209 208 209 209 207 207 208 209 212 214 216 217 217 216 217 215 213 210 209 209 209 211 212 216 218 217 220
202 204 202 216 212 239 279 248 103 226 213 215 213 215 216 205 210 212 208 205 207 210 210 210 210 209 210 209 207 209 209 210 214 214 215 214 214 214 214 211 212 212 213 213 213 216 219 219 219